Time,TemperatureF,DewpointF,PressureIn,WindDirection,WindDirectionDegrees,WindSpeedMPH,WindSpeedGustMPH,Humidity,HourlyPrecipIn,Conditions,Clouds,dailyrainin,SoftwareType,DateUTC
2013-02-28 00:00:00,31.8,31.1,29.74,SSW,202,1.1,7.2,97,0.00,,OVC,0.00,VWS V14.01,2013-02-28 05:00:00,
2013-02-28 00:05:00,32.2,31.7,29.71,SSE,158,4.9,7.4,98,0.00,,OVC,0.00,VWS V14.01,2013-02-28 05:05:00,
2013-02-28 00:10:00,32.4,31.9,29.71,SW,225,5.8,5.8,98,0.00,,OVC,0.00,VWS V14.01,2013-02-28 05:10:00,
2013-02-28 00:15:00,32.4,31.9,29.71,SSW,202,5.4,5.4,98,0.00,,OVC,0.00,VWS V14.01,2013-02-28 05:15:00,
2013-02-28 00:20:00,32.5,32.0,29.71,SSE,158,3.6,3.6,98,0.00,,OVC,0.00,VWS V14.01,2013-02-28 05:20:00,
2013-02-28 00:25:00,32.7,32.2,29.71,South,180,3.6,4.0,98,0.00,,OVC,0.00,VWS V14.01,2013-02-28 05:25:00,
2013-02-28 00:30:00,32.7,32.2,29.71,North,0,2.5,3.4,98,0.00,,OVC,0.00,VWS V14.01,2013-02-28 05:30:00,
2013-02-28 00:35:00,32.9,32.4,29.71,NNE,22,2.9,3.4,98,0.00,,OVC,0.00,VWS V14.01,2013-02-28 05:35:00,
2013-02-28 00:40:00,33.1,32.6,29.71,South,180,0.9,5.6,98,0.00,,OVC,0.00,VWS V14.01,2013-02-28 05:40:00,
2013-02-28 00:45:00,33.1,32.6,29.71,SSE,158,1.6,7.2,98,0.00,,OVC,0.00,VWS V14.01,2013-02-28 05:45:00,
2013-02-28 00:50:00,33.3,32.8,29.71,East,90,4.3,7.2,98,0.00,,OVC,0.00,VWS V14.01,2013-02-28 05:50:00,
2013-02-28 00:55:00,33.3,32.8,29.71,ESE,112,4.3,5.4,98,0.00,,OVC,0.00,VWS V14.01,2013-02-28 05:55:00,
2013-02-28 01:00:00,33.3,32.8,29.71,ESE,112,3.6,3.6,98,0.00,,OVC,0.00,VWS V14.01,2013-02-28 06:00:00,
2013-02-28 01:05:00,33.3,32.8,29.71,South,180,1.6,3.6,98,0.00,,OVC,0.00,VWS V14.01,2013-02-28 06:05:00,
2013-02-28 01:11:00,33.4,32.9,29.71,SSW,202,3.4,5.6,98,0.00,,OVC,0.00,VWS V14.01,2013-02-28 06:11:00,
2013-02-28 01:15:00,33.4,32.9,29.71,SSE,158,0.0,3.1,98,0.00,,OVC,0.00,VWS V14.01,2013-02-28 06:15:00,
2013-02-28 01:21:00,33.4,32.9,29.68,South,180,2.0,7.6,98,0.00,,OVC,0.00,VWS V14.01,2013-02-28 06:21:00,
2013-02-28 01:26:00,33.4,32.9,29.68,South,180,1.3,2.0,98,0.00,,OVC,0.00,VWS V14.01,2013-02-28 06:26:00,
2013-02-28 01:30:00,33.4,32.9,29.68,ESE,112,2.5,2.9,98,0.00,,OVC,0.00,VWS V14.01,2013-02-28 06:30:00,
2013-02-28 01:31:00,33.6,33.1,29.68,South,180,2.9,3.6,98,0.00,,OVC,0.00,VWS V14.01,2013-02-28 06:31:00,
2013-02-28 01:36:00,33.6,33.1,29.68,South,180,2.2,5.6,98,0.00,,OVC,0.00,VWS V14.01,2013-02-28 06:36:00,
2013-02-28 01:41:00,33.6,33.1,29.68,SSE,158,2.7,3.1,98,0.00,,OVC,0.00,VWS V14.01,2013-02-28 06:41:00,
2013-02-28 01:46:00,33.6,33.1,29.68,SE,135,1.1,2.9,98,0.00,,OVC,0.00,VWS V14.01,2013-02-28 06:46:00,
2013-02-28 01:51:00,33.8,33.3,29.65,WSW,248,2.9,3.4,98,0.00,,OVC,0.00,VWS V14.01,2013-02-28 06:51:00,
2013-02-28 01:56:00,33.8,33.3,29.65,SSW,202,0.0,2.5,98,0.00,,OVC,0.00,VWS V14.01,2013-02-28 06:56:00,
2013-02-28 02:00:00,33.8,33.3,29.65,South,180,0.0,0.0,98,0.00,,OVC,0.00,VWS V14.01,2013-02-28 07:00:00,
2013-02-28 02:01:00,33.8,33.3,29.65,SE,135,1.1,4.3,98,0.00,,OVC,0.00,VWS V14.01,2013-02-28 07:01:00,
2013-02-28 02:06:00,34.0,33.5,29.68,NE,45,1.6,2.5,98,0.00,,OVC,0.00,VWS V14.01,2013-02-28 07:06:00,
2013-02-28 02:11:00,34.0,33.5,29.68,SW,225,6.3,6.3,98,0.00,,OVC,0.00,VWS V14.01,2013-02-28 07:11:00,
2013-02-28 02:16:00,34.0,33.5,29.68,ENE,68,1.6,2.9,98,0.00,,OVC,0.00,VWS V14.01,2013-02-28 07:16:00,
2013-02-28 02:21:00,34.2,33.7,29.68,SSW,202,0.9,2.5,98,0.00,,OVC,0.00,VWS V14.01,2013-02-28 07:21:00,
2013-02-28 02:26:00,34.2,33.7,29.68,SSW,202,0.0,3.1,98,0.00,,OVC,0.00,VWS V14.01,2013-02-28 07:26:00,
2013-02-28 02:30:00,34.2,33.7,29.68,East,90,0.0,3.1,98,0.00,,OVC,0.00,VWS V14.01,2013-02-28 07:30:00,
2013-02-28 02:31:00,34.2,33.7,29.68,East,90,2.9,5.6,98,0.00,,OVC,0.00,VWS V14.01,2013-02-28 07:31:00,
2013-02-28 02:36:00,34.3,33.8,29.68,East,90,0.0,2.9,98,0.00,,OVC,0.00,VWS V14.01,2013-02-28 07:36:00,
2013-02-28 02:41:00,34.3,33.8,29.68,SSE,158,2.0,3.4,98,0.00,,OVC,0.00,VWS V14.01,2013-02-28 07:41:00,
2013-02-28 02:46:00,34.3,33.8,29.68,East,90,0.0,3.6,98,0.00,,OVC,0.00,VWS V14.01,2013-02-28 07:46:00,
2013-02-28 02:51:00,34.5,34.0,29.65,East,90,4.7,7.2,98,0.00,,OVC,0.00,VWS V14.01,2013-02-28 07:51:00,
2013-02-28 02:56:00,34.5,34.0,29.65,ESE,112,3.1,5.4,98,0.00,,OVC,0.00,VWS V14.01,2013-02-28 07:56:00,
2013-02-28 03:00:00,34.5,34.0,29.65,ESE,112,3.1,3.1,98,0.00,,OVC,0.00,VWS V14.01,2013-02-28 08:00:00,
2013-02-28 03:01:00,34.7,34.2,29.65,SSE,158,3.4,5.6,98,0.00,,OVC,0.00,VWS V14.01,2013-02-28 08:01:00,
2013-02-28 03:06:00,34.7,34.2,29.65,SE,135,2.0,5.8,98,0.00,,OVC,0.00,VWS V14.01,2013-02-28 08:06:00,
2013-02-28 03:11:00,34.7,34.2,29.65,SSE,158,1.6,5.6,98,0.00,,OVC,0.00,VWS V14.01,2013-02-28 08:11:00,
2013-02-28 03:16:00,34.7,34.2,29.65,SSW,202,0.0,3.4,98,0.00,,OVC,0.00,VWS V14.01,2013-02-28 08:16:00,
2013-02-28 03:21:00,34.7,34.2,29.65,SSW,202,1.3,2.5,98,0.00,,OVC,0.00,VWS V14.01,2013-02-28 08:21:00,
2013-02-28 03:26:00,34.9,34.4,29.65,ENE,68,5.6,5.6,98,0.00,,OVC,0.00,VWS V14.01,2013-02-28 08:26:00,
2013-02-28 03:30:00,34.9,34.4,29.65,ESE,112,8.5,8.5,98,0.00,,OVC,0.00,VWS V14.01,2013-02-28 08:30:00,
2013-02-28 03:31:00,34.7,34.2,29.65,ENE,68,0.0,0.0,98,0.00,,OVC,0.00,VWS V14.01,2013-02-28 08:31:00,
2013-02-28 03:36:00,34.9,34.4,29.65,SW,225,3.1,6.5,98,0.00,,OVC,0.00,VWS V14.01,2013-02-28 08:36:00,
2013-02-28 03:41:00,34.9,34.4,29.65,SSE,158,1.3,2.9,98,0.00,,OVC,0.00,VWS V14.01,2013-02-28 08:41:00,
2013-02-28 03:46:00,34.9,34.4,29.65,ESE,112,0.0,0.0,98,0.00,,OVC,0.00,VWS V14.01,2013-02-28 08:46:00,
2013-02-28 03:51:00,34.9,34.4,29.65,ESE,112,0.0,2.7,98,0.00,,OVC,0.00,VWS V14.01,2013-02-28 08:51:00,
2013-02-28 03:56:00,35.1,34.5,29.65,ENE,68,5.4,5.4,98,0.00,,OVC,0.00,VWS V14.01,2013-02-28 08:56:00,
2013-02-28 04:00:00,35.1,34.5,29.65,ENE,68,5.4,5.4,98,0.00,,OVC,0.00,VWS V14.01,2013-02-28 09:00:00,
2013-02-28 04:01:00,35.2,34.7,29.65,South,180,0.0,3.1,98,0.00,,OVC,0.00,VWS V14.01,2013-02-28 09:01:00,
2013-02-28 04:06:00,35.2,34.7,29.65,East,90,3.4,4.3,98,0.00,,OVC,0.00,VWS V14.01,2013-02-28 09:06:00,
2013-02-28 04:11:00,35.4,34.9,29.65,ESE,112,3.1,3.1,98,0.00,,OVC,0.00,VWS V14.01,2013-02-28 09:11:00,
2013-02-28 04:16:00,35.6,35.1,29.65,South,180,1.1,2.7,98,0.00,,OVC,0.00,VWS V14.01,2013-02-28 09:16:00,
2013-02-28 04:21:00,35.4,34.9,29.65,SSW,202,0.9,2.9,98,0.00,,OVC,0.00,VWS V14.01,2013-02-28 09:21:00,
2013-02-28 04:26:00,35.6,35.1,29.65,ESE,112,0.0,2.0,98,0.00,,OVC,0.00,VWS V14.01,2013-02-28 09:26:00,
2013-02-28 04:30:00,35.6,35.1,29.65,ESE,112,0.0,2.0,98,0.00,,OVC,0.00,VWS V14.01,2013-02-28 09:30:00,
2013-02-28 04:31:00,35.8,35.3,29.65,East,90,0.0,1.3,98,0.00,,OVC,0.00,VWS V14.01,2013-02-28 09:31:00,
2013-02-28 04:36:00,35.8,35.3,29.65,ESE,112,0.0,2.5,98,0.00,,OVC,0.00,VWS V14.01,2013-02-28 09:36:00,
2013-02-28 04:41:00,36.0,35.5,29.65,SSE,158,0.0,3.8,98,0.00,,OVC,0.00,VWS V14.01,2013-02-28 09:41:00,
2013-02-28 04:46:00,36.1,35.6,29.65,SSE,158,2.9,3.6,98,0.00,,OVC,0.00,VWS V14.01,2013-02-28 09:46:00,
2013-02-28 04:51:00,36.3,35.8,29.65,ESE,112,0.0,3.6,98,0.00,,OVC,0.00,VWS V14.01,2013-02-28 09:51:00,
2013-02-28 04:56:00,36.3,35.8,29.65,East,90,2.5,3.1,98,0.00,,OVC,0.00,VWS V14.01,2013-02-28 09:56:00,
2013-02-28 05:00:00,36.3,35.8,29.65,ENE,68,3.1,3.1,98,0.00,,OVC,0.00,VWS V14.01,2013-02-28 10:00:00,
2013-02-28 05:01:00,36.3,35.8,29.65,East,90,1.1,2.0,98,0.00,,OVC,0.00,VWS V14.01,2013-02-28 10:01:00,
2013-02-28 05:06:00,36.5,36.0,29.65,ENE,68,1.6,4.7,98,0.00,,OVC,0.00,VWS V14.01,2013-02-28 10:06:00,
2013-02-28 05:11:00,36.7,36.2,29.65,ESE,112,1.3,2.9,98,0.00,,OVC,0.00,VWS V14.01,2013-02-28 10:11:00,
2013-02-28 05:16:00,36.9,36.3,29.65,SSW,202,0.0,6.0,98,0.00,,OVC,0.00,VWS V14.01,2013-02-28 10:16:00,
2013-02-28 05:22:00,36.9,36.3,29.62,SSE,158,0.0,3.8,98,0.00,,OVC,0.00,VWS V14.01,2013-02-28 10:22:00,
2013-02-28 05:27:00,36.9,36.3,29.62,SSE,158,2.7,3.8,98,0.00,,OVC,0.00,VWS V14.01,2013-02-28 10:27:00,
2013-02-28 05:30:00,36.9,36.3,29.62,SSW,202,2.0,3.8,98,0.00,,OVC,0.00,VWS V14.01,2013-02-28 10:30:00,
2013-02-28 05:32:00,36.9,36.3,29.65,ENE,68,1.3,2.9,98,0.00,,OVC,0.00,VWS V14.01,2013-02-28 10:32:00,
2013-02-28 05:37:00,37.0,36.5,29.65,NE,45,0.0,7.6,98,0.00,,OVC,0.00,VWS V14.01,2013-02-28 10:37:00,
2013-02-28 05:42:00,36.9,36.3,29.65,SE,135,2.0,4.0,98,0.00,,OVC,0.00,VWS V14.01,2013-02-28 10:42:00,
2013-02-28 05:47:00,37.0,36.5,29.62,SSE,158,5.8,5.8,98,0.00,,OVC,0.00,VWS V14.01,2013-02-28 10:47:00,
2013-02-28 05:52:00,37.0,36.5,29.62,SSE,158,0.0,3.4,98,0.00,,OVC,0.00,VWS V14.01,2013-02-28 10:52:00,
2013-02-28 05:57:00,37.0,36.5,29.62,SSE,158,2.5,3.8,98,0.00,,OVC,0.00,VWS V14.01,2013-02-28 10:57:00,
2013-02-28 06:00:00,37.0,36.5,29.62,SSE,158,2.7,4.3,98,0.00,,OVC,0.00,VWS V14.01,2013-02-28 11:00:00,
2013-02-28 06:02:00,37.0,36.5,29.62,ESE,112,0.0,0.0,98,0.00,,OVC,0.00,VWS V14.01,2013-02-28 11:02:00,
2013-02-28 06:07:00,37.0,36.5,29.62,SSW,202,2.5,5.8,98,0.00,,OVC,0.00,VWS V14.01,2013-02-28 11:07:00,
2013-02-28 06:12:00,37.0,36.5,29.62,South,180,1.3,3.4,98,0.00,,OVC,0.00,VWS V14.01,2013-02-28 11:12:00,
2013-02-28 06:17:00,37.2,36.7,29.62,SSE,158,5.8,7.4,98,0.00,,OVC,0.00,VWS V14.01,2013-02-28 11:17:00,
2013-02-28 06:22:00,37.2,36.7,29.62,NE,45,3.4,4.0,98,0.00,,OVC,0.00,VWS V14.01,2013-02-28 11:22:00,
2013-02-28 06:27:00,37.4,36.9,29.62,SSW,202,0.0,2.9,98,0.00,,OVC,0.00,VWS V14.01,2013-02-28 11:27:00,
2013-02-28 06:30:00,37.4,36.9,29.62,SW,225,2.2,3.4,98,0.00,,OVC,0.00,VWS V14.01,2013-02-28 11:30:00,
2013-02-28 06:32:00,37.2,36.7,29.62,ESE,112,0.0,3.6,98,0.00,,OVC,0.00,VWS V14.01,2013-02-28 11:32:00,
2013-02-28 06:37:00,37.4,36.9,29.62,East,90,1.1,3.6,98,0.00,,OVC,0.00,VWS V14.01,2013-02-28 11:37:00,
2013-02-28 06:42:00,37.4,36.9,29.62,SSE,158,3.8,6.5,98,0.00,,OVC,0.00,VWS V14.01,2013-02-28 11:42:00,
2013-02-28 06:47:00,37.6,37.1,29.62,ESE,112,3.8,5.8,98,0.00,,OVC,0.00,VWS V14.01,2013-02-28 11:47:00,
2013-02-28 06:52:00,37.4,36.9,29.62,SW,225,2.0,3.8,98,0.00,,OVC,0.00,VWS V14.01,2013-02-28 11:52:00,
2013-02-28 06:57:00,37.4,36.9,29.62,SW,225,1.3,4.7,98,0.00,,OVC,0.00,VWS V14.01,2013-02-28 11:57:00,
2013-02-28 07:00:00,37.4,36.9,29.62,SSE,158,4.7,4.7,98,0.00,,OVC,0.00,VWS V14.01,2013-02-28 12:00:00,
2013-02-28 07:02:00,37.6,37.1,29.62,SE,135,2.9,3.1,98,0.00,,OVC,0.00,VWS V14.01,2013-02-28 12:02:00,
2013-02-28 07:07:00,37.8,37.2,29.62,SSE,158,2.9,3.4,98,0.00,,OVC,0.00,VWS V14.01,2013-02-28 12:07:00,
2013-02-28 07:12:00,37.8,37.2,29.62,WNW,292,2.7,3.8,98,0.00,,OVC,0.00,VWS V14.01,2013-02-28 12:12:00,
2013-02-28 07:17:00,37.9,37.4,29.62,NW,315,2.0,8.5,98,0.00,,OVC,0.00,VWS V14.01,2013-02-28 12:17:00,
2013-02-28 07:22:00,37.9,37.4,29.62,SSW,202,2.5,4.0,98,0.00,,OVC,0.00,VWS V14.01,2013-02-28 12:22:00,
2013-02-28 07:27:00,37.8,37.2,29.62,WNW,292,2.7,3.4,98,0.00,,OVC,0.00,VWS V14.01,2013-02-28 12:27:00,
2013-02-28 07:30:00,37.8,37.2,29.62,SSE,158,1.3,3.4,98,0.00,,OVC,0.00,VWS V14.01,2013-02-28 12:30:00,
2013-02-28 07:32:00,37.9,37.4,29.59,WSW,248,2.2,3.1,98,0.00,,OVC,0.00,VWS V14.01,2013-02-28 12:32:00,
2013-02-28 07:37:00,37.9,37.4,29.59,SW,225,0.0,4.9,98,0.00,,OVC,0.00,VWS V14.01,2013-02-28 12:37:00,
2013-02-28 07:42:00,37.9,37.4,29.59,SSW,202,2.0,3.4,98,0.00,,OVC,0.00,VWS V14.01,2013-02-28 12:42:00,
2013-02-28 07:47:00,37.9,37.4,29.62,ENE,68,1.1,3.1,98,0.00,,OVC,0.00,VWS V14.01,2013-02-28 12:47:00,
2013-02-28 07:52:00,37.9,37.4,29.62,SE,135,4.0,4.0,98,0.00,,OVC,0.00,VWS V14.01,2013-02-28 12:52:00,
2013-02-28 07:57:00,37.9,37.4,29.62,SE,135,0.0,4.0,98,0.00,,OVC,0.00,VWS V14.01,2013-02-28 12:57:00,
2013-02-28 08:00:00,37.9,37.4,29.62,SE,135,4.0,4.0,98,0.00,,OVC,0.00,VWS V14.01,2013-02-28 13:00:00,
2013-02-28 08:02:00,38.1,37.6,29.62,SSE,158,5.8,5.8,98,0.00,,OVC,0.00,VWS V14.01,2013-02-28 13:02:00,
2013-02-28 08:07:00,38.3,37.8,29.62,ESE,112,5.8,5.8,98,0.00,,OVC,0.00,VWS V14.01,2013-02-28 13:07:00,
2013-02-28 08:12:00,38.5,38.0,29.62,South,180,5.8,5.8,98,0.00,,OVC,0.00,VWS V14.01,2013-02-28 13:12:00,
2013-02-28 08:17:00,38.5,38.0,29.59,SE,135,2.2,2.7,98,0.00,,OVC,0.00,VWS V14.01,2013-02-28 13:17:00,
2013-02-28 08:22:00,38.5,38.0,29.59,SSE,158,0.0,4.9,98,0.00,,OVC,0.00,VWS V14.01,2013-02-28 13:22:00,
2013-02-28 08:27:00,38.5,38.0,29.59,SSW,202,0.0,8.5,98,0.00,,OVC,0.00,VWS V14.01,2013-02-28 13:27:00,
2013-02-28 08:30:00,38.5,38.0,29.59,South,180,2.5,4.0,98,0.00,,OVC,0.00,VWS V14.01,2013-02-28 13:30:00,
2013-02-28 08:32:00,38.7,38.2,29.59,SSW,202,3.6,3.8,98,0.00,,OVC,0.00,VWS V14.01,2013-02-28 13:32:00,
2013-02-28 08:37:00,38.7,38.2,29.59,West,270,2.7,4.3,98,0.00,,OVC,0.00,VWS V14.01,2013-02-28 13:37:00,
2013-02-28 08:42:00,38.7,38.2,29.59,ESE,112,2.5,3.6,98,0.00,,OVC,0.00,VWS V14.01,2013-02-28 13:42:00,
2013-02-28 08:47:00,38.8,38.3,29.62,SSW,202,3.8,3.8,98,0.00,,OVC,0.00,VWS V14.01,2013-02-28 13:47:00,
2013-02-28 08:52:00,38.8,38.3,29.62,South,180,0.0,0.0,98,0.00,,OVC,0.00,VWS V14.01,2013-02-28 13:52:00,
2013-02-28 08:57:00,38.8,38.3,29.62,SE,135,0.0,3.6,98,0.00,,OVC,0.00,VWS V14.01,2013-02-28 13:57:00,
2013-02-28 09:00:00,38.8,38.3,29.62,ESE,112,2.0,5.6,98,0.00,,OVC,0.00,VWS V14.01,2013-02-28 14:00:00,
2013-02-28 09:02:00,38.8,38.3,29.62,NNE,22,3.6,3.6,98,0.00,,OVC,0.00,VWS V14.01,2013-02-28 14:02:00,
2013-02-28 09:08:00,38.8,38.3,29.62,ENE,68,3.8,8.1,98,0.00,,OVC,0.00,VWS V14.01,2013-02-28 14:08:00,
2013-02-28 09:13:00,38.8,38.3,29.62,ENE,68,1.3,6.9,98,0.00,,OVC,0.00,VWS V14.01,2013-02-28 14:13:00,
2013-02-28 09:18:00,38.8,38.3,29.62,ESE,112,2.2,7.8,98,0.00,,OVC,0.00,VWS V14.01,2013-02-28 14:18:00,
2013-02-28 09:23:00,38.8,38.3,29.62,South,180,0.0,1.3,98,0.00,,OVC,0.00,VWS V14.01,2013-02-28 14:23:00,
2013-02-28 09:28:00,39.0,38.5,29.62,South,180,0.0,0.0,98,0.00,,OVC,0.00,VWS V14.01,2013-02-28 14:28:00,
2013-02-28 09:30:00,38.8,38.3,29.62,ESE,112,0.0,4.7,98,0.00,,OVC,0.00,VWS V14.01,2013-02-28 14:30:00,
2013-02-28 09:33:00,39.2,38.7,29.62,NE,45,3.8,3.8,98,0.00,,OVC,0.00,VWS V14.01,2013-02-28 14:33:00,
2013-02-28 09:38:00,39.6,39.0,29.62,NE,45,0.0,4.0,98,0.00,,OVC,0.00,VWS V14.01,2013-02-28 14:38:00,
2013-02-28 09:43:00,39.6,39.0,29.62,SSE,158,2.2,7.4,98,0.00,,OVC,0.00,VWS V14.01,2013-02-28 14:43:00,
2013-02-28 09:48:00,39.7,39.2,29.59,SSE,158,8.7,8.7,98,0.00,,OVC,0.00,VWS V14.01,2013-02-28 14:48:00,
2013-02-28 09:53:00,40.3,39.8,29.59,SSE,158,4.5,4.5,98,0.00,,OVC,0.00,VWS V14.01,2013-02-28 14:53:00,
2013-02-28 09:58:00,40.1,39.6,29.59,ESE,112,1.6,5.8,98,0.00,,OVC,0.00,VWS V14.01,2013-02-28 14:58:00,
2013-02-28 10:00:00,40.3,39.8,29.59,ESE,112,8.7,8.7,98,0.00,,OVC,0.00,VWS V14.01,2013-02-28 15:00:00,
2013-02-28 10:03:00,40.1,39.6,29.62,ESE,112,2.9,2.9,98,0.00,,OVC,0.00,VWS V14.01,2013-02-28 15:03:00,
2013-02-28 10:08:00,40.3,39.8,29.62,ESE,112,2.0,4.0,98,0.00,,OVC,0.00,VWS V14.01,2013-02-28 15:08:00,
2013-02-28 10:13:00,40.3,39.8,29.62,ESE,112,1.6,3.4,98,0.00,,OVC,0.00,VWS V14.01,2013-02-28 15:13:00,
2013-02-28 10:18:00,40.5,39.9,29.62,South,180,0.0,2.7,98,0.00,,OVC,0.00,VWS V14.01,2013-02-28 15:18:00,
2013-02-28 10:23:00,40.5,39.9,29.62,South,180,0.0,3.8,98,0.00,,OVC,0.00,VWS V14.01,2013-02-28 15:23:00,
2013-02-28 10:28:00,40.8,40.3,29.62,ESE,112,0.0,2.7,98,0.00,,OVC,0.00,VWS V14.01,2013-02-28 15:28:00,
2013-02-28 10:30:00,40.6,40.1,29.62,ESE,112,3.4,3.4,98,0.00,,OVC,0.00,VWS V14.01,2013-02-28 15:30:00,
2013-02-28 10:33:00,41.0,40.5,29.59,ESE,112,0.0,0.0,98,0.00,,OVC,0.00,VWS V14.01,2013-02-28 15:33:00,
2013-02-28 10:38:00,41.0,40.5,29.59,SSW,202,2.0,4.0,98,0.00,,OVC,0.00,VWS V14.01,2013-02-28 15:38:00,
2013-02-28 10:43:00,41.0,40.5,29.59,SSE,158,1.3,1.3,98,0.00,,OVC,0.00,VWS V14.01,2013-02-28 15:43:00,
2013-02-28 10:48:00,41.0,40.5,29.62,NW,315,1.3,2.9,98,0.00,,OVC,0.00,VWS V14.01,2013-02-28 15:48:00,
2013-02-28 10:53:00,40.8,40.3,29.62,East,90,1.6,3.4,98,0.00,,OVC,0.00,VWS V14.01,2013-02-28 15:53:00,
2013-02-28 10:58:00,41.4,40.8,29.62,ESE,112,2.9,4.0,98,0.00,,OVC,0.00,VWS V14.01,2013-02-28 15:58:00,
2013-02-28 11:00:00,41.2,40.7,29.62,SSW,202,2.0,4.3,98,0.00,,OVC,0.00,VWS V14.01,2013-02-28 16:00:00,
2013-02-28 11:03:00,41.5,41.0,29.62,SSE,158,0.0,2.0,98,0.00,,OVC,0.00,VWS V14.01,2013-02-28 16:03:00,
2013-02-28 11:08:00,41.2,40.7,29.62,SSE,158,1.1,3.6,98,0.00,,OVC,0.00,VWS V14.01,2013-02-28 16:08:00,
2013-02-28 11:13:00,41.5,41.0,29.62,ESE,112,0.0,0.0,98,0.00,,OVC,0.00,VWS V14.01,2013-02-28 16:13:00,
2013-02-28 11:18:00,41.7,41.2,29.62,East,90,2.5,2.5,98,0.00,,OVC,0.00,VWS V14.01,2013-02-28 16:18:00,
2013-02-28 11:23:00,41.5,41.0,29.62,SSE,158,4.3,4.3,98,0.00,,OVC,0.00,VWS V14.01,2013-02-28 16:23:00,
2013-02-28 11:28:00,41.2,40.7,29.62,ENE,68,4.7,4.7,98,0.00,,OVC,0.00,VWS V14.01,2013-02-28 16:28:00,
2013-02-28 11:30:00,41.4,40.8,29.62,SE,135,1.6,5.8,98,0.00,,OVC,0.00,VWS V14.01,2013-02-28 16:30:00,
2013-02-28 11:33:00,41.5,41.0,29.62,ENE,68,4.0,4.3,98,0.00,,OVC,0.00,VWS V14.01,2013-02-28 16:33:00,
2013-02-28 11:38:00,41.9,41.4,29.62,ESE,112,3.8,3.8,98,0.00,,OVC,0.00,VWS V14.01,2013-02-28 16:38:00,
2013-02-28 11:43:00,41.9,41.1,29.62,East,90,3.1,5.4,97,0.00,,OVC,0.00,VWS V14.01,2013-02-28 16:43:00,
2013-02-28 11:48:00,41.7,40.9,29.62,ESE,112,4.7,4.7,97,0.00,,OVC,0.00,VWS V14.01,2013-02-28 16:48:00,
2013-02-28 11:53:00,41.9,41.1,29.62,ESE,112,0.0,2.7,97,0.00,,OVC,0.00,VWS V14.01,2013-02-28 16:53:00,
2013-02-28 11:58:00,41.7,40.7,29.62,East,90,5.8,5.8,96,0.00,,OVC,0.00,VWS V14.01,2013-02-28 16:58:00,
2013-02-28 12:00:00,41.9,41.1,29.62,ESE,112,1.3,3.6,97,0.00,,OVC,0.00,VWS V14.01,2013-02-28 17:00:00,
2013-02-28 12:03:00,42.3,41.2,29.59,ESE,112,3.8,3.8,96,0.00,,OVC,0.00,VWS V14.01,2013-02-28 17:03:00,
2013-02-28 12:08:00,42.6,41.3,29.59,ESE,112,6.5,6.5,95,0.00,,OVC,0.00,VWS V14.01,2013-02-28 17:08:00,
2013-02-28 12:13:00,42.8,41.2,29.59,SSW,202,6.5,6.5,94,0.00,,OVC,0.00,VWS V14.01,2013-02-28 17:13:00,
2013-02-28 12:18:00,42.4,40.8,29.56,ESE,112,7.6,7.6,94,0.00,,OVC,0.00,VWS V14.01,2013-02-28 17:18:00,
2013-02-28 12:23:00,43.0,41.1,29.56,NNE,22,2.2,4.7,93,0.00,,OVC,0.00,VWS V14.01,2013-02-28 17:23:00,
2013-02-28 12:28:00,43.0,40.8,29.56,SSE,158,3.1,4.7,92,0.00,,OVC,0.00,VWS V14.01,2013-02-28 17:28:00,
2013-02-28 12:30:00,43.2,41.3,29.56,ESE,112,4.7,4.7,93,0.00,,OVC,0.00,VWS V14.01,2013-02-28 17:30:00,
2013-02-28 12:33:00,42.4,40.3,29.56,South,180,1.1,3.8,92,0.00,,OVC,0.00,VWS V14.01,2013-02-28 17:33:00,
2013-02-28 12:38:00,42.3,40.1,29.56,NNE,22,0.0,2.9,92,0.00,,OVC,0.00,VWS V14.01,2013-02-28 17:38:00,
2013-02-28 12:43:00,42.1,39.9,29.56,South,180,1.6,2.9,92,0.00,,OVC,0.00,VWS V14.01,2013-02-28 17:43:00,
2013-02-28 12:48:00,41.5,39.7,29.56,WNW,292,4.3,4.3,93,0.00,,OVC,0.00,VWS V14.01,2013-02-28 17:48:00,
2013-02-28 12:53:00,41.5,39.7,29.56,SSW,202,3.1,6.0,93,0.00,,OVC,0.00,VWS V14.01,2013-02-28 17:53:00,
2013-02-28 12:59:00,41.2,39.6,29.56,SW,225,2.9,3.1,94,0.00,,OVC,0.00,VWS V14.01,2013-02-28 17:59:00,
2013-02-28 13:00:00,41.4,39.5,29.56,SE,135,0.9,2.9,93,0.00,,OVC,0.00,VWS V14.01,2013-02-28 18:00:00,
2013-02-28 13:04:00,41.0,39.4,29.56,ESE,112,0.0,3.8,94,0.00,,OVC,0.00,VWS V14.01,2013-02-28 18:04:00,
2013-02-28 13:09:00,40.8,39.5,29.56,ENE,68,3.6,6.3,95,0.00,,OVC,0.00,VWS V14.01,2013-02-28 18:09:00,
2013-02-28 13:14:00,40.8,39.5,29.56,SSW,202,1.6,5.8,95,0.00,,OVC,0.00,VWS V14.01,2013-02-28 18:14:00,
2013-02-28 13:19:00,41.0,39.7,29.53,SSW,202,2.0,2.2,95,0.00,,OVC,0.00,VWS V14.01,2013-02-28 18:19:00,
2013-02-28 13:24:00,41.0,40.0,29.53,SE,135,2.0,4.0,96,0.00,,OVC,0.00,VWS V14.01,2013-02-28 18:24:00,
2013-02-28 13:29:00,41.0,40.0,29.53,NNE,22,1.1,4.7,96,0.00,,OVC,0.00,VWS V14.01,2013-02-28 18:29:00,
2013-02-28 13:30:00,41.0,40.0,29.53,SSE,158,1.3,3.1,96,0.00,,OVC,0.00,VWS V14.01,2013-02-28 18:30:00,
2013-02-28 13:34:00,40.8,39.8,29.53,SSW,202,0.0,2.0,96,0.00,,OVC,0.00,VWS V14.01,2013-02-28 18:34:00,
2013-02-28 13:39:00,41.0,40.0,29.53,NNE,22,3.8,3.8,96,0.00,,OVC,0.00,VWS V14.01,2013-02-28 18:39:00,
2013-02-28 13:44:00,40.8,40.0,29.53,ENE,68,3.4,3.4,97,0.00,,OVC,0.00,VWS V14.01,2013-02-28 18:44:00,
2013-02-28 13:49:00,40.8,40.0,29.53,NE,45,2.7,2.7,97,0.00,,OVC,0.00,VWS V14.01,2013-02-28 18:49:00,
2013-02-28 13:54:00,40.6,39.9,29.53,East,90,2.5,2.5,97,0.00,,OVC,0.00,VWS V14.01,2013-02-28 18:54:00,
2013-02-28 13:59:00,40.6,39.9,29.53,ESE,112,0.0,1.6,97,0.00,,OVC,0.00,VWS V14.01,2013-02-28 18:59:00,
2013-02-28 14:00:00,40.8,40.0,29.53,WSW,248,0.0,3.1,97,0.00,,OVC,0.00,VWS V14.01,2013-02-28 19:00:00,
2013-02-28 14:04:00,40.6,39.9,29.56,SSW,202,2.5,6.0,97,0.00,,OVC,0.00,VWS V14.01,2013-02-28 19:04:00,
2013-02-28 14:09:00,40.6,39.9,29.56,SSE,158,0.0,0.0,97,0.00,,OVC,0.00,VWS V14.01,2013-02-28 19:09:00,
2013-02-28 14:14:00,40.6,39.9,29.56,SSW,202,0.9,0.9,97,0.00,,OVC,0.00,VWS V14.01,2013-02-28 19:14:00,
2013-02-28 14:19:00,40.6,39.9,29.59,East,90,2.9,4.3,97,0.00,,OVC,0.00,VWS V14.01,2013-02-28 19:19:00,
2013-02-28 14:24:00,40.6,39.9,29.59,ESE,112,4.0,6.0,97,0.00,,OVC,0.00,VWS V14.01,2013-02-28 19:24:00,
2013-02-28 14:29:00,40.8,40.3,29.59,SSE,158,1.6,2.5,98,0.00,,OVC,0.00,VWS V14.01,2013-02-28 19:29:00,
2013-02-28 14:30:00,40.8,40.3,29.59,South,180,0.0,0.0,98,0.00,,OVC,0.00,VWS V14.01,2013-02-28 19:30:00,
2013-02-28 14:34:00,40.8,40.3,29.56,SSW,202,0.0,2.7,98,0.00,,OVC,0.00,VWS V14.01,2013-02-28 19:34:00,
2013-02-28 14:39:00,40.6,40.1,29.56,ESE,112,4.3,4.3,98,0.00,,OVC,0.00,VWS V14.01,2013-02-28 19:39:00,
2013-02-28 14:44:00,40.5,39.9,29.56,SSW,202,2.5,3.4,98,0.00,,OVC,0.00,VWS V14.01,2013-02-28 19:44:00,
2013-02-28 14:49:00,40.5,39.9,29.56,ESE,112,3.8,4.3,98,0.00,,OVC,0.00,VWS V14.01,2013-02-28 19:49:00,
2013-02-28 14:54:00,40.1,39.6,29.56,NNE,22,0.0,0.0,98,0.00,,OVC,0.00,VWS V14.01,2013-02-28 19:54:00,
2013-02-28 14:59:00,39.4,38.6,29.56,NW,315,2.0,3.4,97,0.00,,OVC,0.00,VWS V14.01,2013-02-28 19:59:00,
2013-02-28 15:00:00,39.9,39.4,29.56,NNW,338,2.5,2.7,98,0.00,,OVC,0.00,VWS V14.01,2013-02-28 20:00:00,
2013-02-28 15:04:00,39.0,38.5,29.56,ENE,68,2.0,2.0,98,0.00,,OVC,0.00,VWS V14.01,2013-02-28 20:04:00,
2013-02-28 15:09:00,38.8,38.3,29.56,North,0,4.9,4.9,98,0.00,,OVC,0.00,VWS V14.01,2013-02-28 20:09:00,
2013-02-28 15:14:00,38.5,38.0,29.56,NNW,338,2.9,2.9,98,0.00,,OVC,0.00,VWS V14.01,2013-02-28 20:14:00,
2013-02-28 15:19:00,38.3,37.8,29.56,ENE,68,2.7,3.1,98,0.00,,OVC,0.00,VWS V14.01,2013-02-28 20:19:00,
2013-02-28 15:24:00,38.1,37.6,29.56,NNW,338,2.0,3.8,98,0.00,,OVC,0.00,VWS V14.01,2013-02-28 20:24:00,
2013-02-28 15:29:00,38.1,37.6,29.56,NNW,338,0.0,5.8,98,0.00,,OVC,0.00,VWS V14.01,2013-02-28 20:29:00,
2013-02-28 15:30:00,38.1,37.6,29.56,NW,315,3.4,5.8,98,0.00,,OVC,0.00,VWS V14.01,2013-02-28 20:30:00,
2013-02-28 15:34:00,37.9,37.4,29.56,North,0,2.0,3.1,98,0.00,,OVC,0.00,VWS V14.01,2013-02-28 20:34:00,
2013-02-28 15:39:00,37.9,37.4,29.56,NNW,338,0.0,4.3,98,0.00,,OVC,0.00,VWS V14.01,2013-02-28 20:39:00,
2013-02-28 15:44:00,37.8,37.2,29.56,NNW,338,2.5,3.6,98,0.00,,OVC,0.00,VWS V14.01,2013-02-28 20:44:00,
2013-02-28 15:49:00,37.8,37.2,29.56,NNW,338,0.0,2.9,98,0.00,,OVC,0.00,VWS V14.01,2013-02-28 20:49:00,
2013-02-28 15:54:00,37.6,37.1,29.56,NNW,338,3.6,3.8,98,0.00,,OVC,0.00,VWS V14.01,2013-02-28 20:54:00,
2013-02-28 15:59:00,37.4,36.9,29.56,NW,315,3.8,6.3,98,0.00,,OVC,0.00,VWS V14.01,2013-02-28 20:59:00,
2013-02-28 16:00:00,37.6,37.1,29.56,NNW,338,2.2,3.8,98,0.00,,OVC,0.00,VWS V14.01,2013-02-28 21:00:00,
2013-02-28 16:04:00,37.0,36.5,29.59,North,0,0.0,4.9,98,0.00,,OVC,0.00,VWS V14.01,2013-02-28 21:04:00,
2013-02-28 16:09:00,36.9,36.3,29.59,NNW,338,3.4,3.6,98,0.00,,OVC,0.00,VWS V14.01,2013-02-28 21:09:00,
2013-02-28 16:14:00,36.7,36.2,29.59,NW,315,0.9,1.1,98,0.00,,OVC,0.00,VWS V14.01,2013-02-28 21:14:00,
2013-02-28 16:19:00,36.5,36.0,29.56,North,0,3.6,6.7,98,0.00,,OVC,0.00,VWS V14.01,2013-02-28 21:19:00,
2013-02-28 16:24:00,36.1,35.6,29.56,NNW,338,5.4,5.4,98,0.00,,OVC,0.00,VWS V14.01,2013-02-28 21:24:00,
2013-02-28 16:30:00,36.1,35.6,29.56,NNW,338,2.7,4.7,98,0.00,,OVC,0.00,VWS V14.01,2013-02-28 21:30:00,
2013-02-28 16:35:00,36.0,35.5,29.59,WNW,292,4.0,4.9,98,0.00,,OVC,0.00,VWS V14.01,2013-02-28 21:35:00,
2013-02-28 16:40:00,35.8,35.3,29.59,NNW,338,4.7,4.7,98,0.00,,OVC,0.00,VWS V14.01,2013-02-28 21:40:00,
2013-02-28 16:45:00,35.8,35.3,29.59,ENE,68,2.5,2.7,98,0.00,,OVC,0.00,VWS V14.01,2013-02-28 21:45:00,
2013-02-28 16:50:00,35.6,35.1,29.56,NNW,338,4.9,4.9,98,0.00,,OVC,0.00,VWS V14.01,2013-02-28 21:50:00,
2013-02-28 16:55:00,35.6,35.1,29.56,NW,315,2.9,4.0,98,0.00,,OVC,0.00,VWS V14.01,2013-02-28 21:55:00,
2013-02-28 17:00:00,35.4,34.9,29.56,NNW,338,0.0,6.0,98,0.00,,OVC,0.00,VWS V14.01,2013-02-28 22:00:00,
2013-02-28 17:05:00,35.4,34.9,29.56,WNW,292,3.8,3.8,98,0.00,,OVC,0.00,VWS V14.01,2013-02-28 22:05:00,
2013-02-28 17:10:00,35.2,34.7,29.56,NNE,22,3.4,4.3,98,0.00,,OVC,0.00,VWS V14.01,2013-02-28 22:10:00,
2013-02-28 17:15:00,35.1,34.5,29.56,NW,315,3.4,4.3,98,0.00,,OVC,0.00,VWS V14.01,2013-02-28 22:15:00,
2013-02-28 17:20:00,35.1,34.5,29.56,NW,315,0.0,4.3,98,0.00,,OVC,0.00,VWS V14.01,2013-02-28 22:20:00,
2013-02-28 17:25:00,34.9,34.4,29.56,NNW,338,2.5,5.4,98,0.00,,OVC,0.00,VWS V14.01,2013-02-28 22:25:00,
2013-02-28 17:30:00,34.9,34.4,29.56,North,0,1.1,6.3,98,0.00,,OVC,0.00,VWS V14.01,2013-02-28 22:30:00,
2013-02-28 17:35:00,34.9,34.4,29.56,NNW,338,0.0,2.0,98,0.00,,OVC,0.00,VWS V14.01,2013-02-28 22:35:00,
2013-02-28 17:40:00,34.7,34.2,29.56,NNW,338,2.5,2.5,98,0.00,,OVC,0.00,VWS V14.01,2013-02-28 22:40:00,
2013-02-28 17:45:00,34.7,34.2,29.56,North,0,0.0,0.0,98,0.00,,OVC,0.00,VWS V14.01,2013-02-28 22:45:00,
2013-02-28 17:50:00,34.7,34.2,29.56,ENE,68,0.0,3.1,98,0.00,,OVC,0.00,VWS V14.01,2013-02-28 22:50:00,
2013-02-28 17:55:00,34.7,34.2,29.56,NNW,338,2.5,2.7,98,0.00,,OVC,0.00,VWS V14.01,2013-02-28 22:55:00,
2013-02-28 18:00:00,34.7,34.2,29.56,NNW,338,1.3,3.6,98,0.00,,OVC,0.00,VWS V14.01,2013-02-28 23:00:00,
2013-02-28 18:05:00,34.5,34.0,29.56,WNW,292,0.0,2.9,98,0.00,,OVC,0.00,VWS V14.01,2013-02-28 23:05:00,
2013-02-28 18:10:00,34.5,34.0,29.56,NNE,22,0.0,5.8,98,0.00,,OVC,0.00,VWS V14.01,2013-02-28 23:10:00,
2013-02-28 18:15:00,34.5,34.0,29.56,WNW,292,3.1,3.6,98,0.00,,OVC,0.00,VWS V14.01,2013-02-28 23:15:00,
2013-02-28 18:20:00,34.5,34.0,29.56,NW,315,0.9,3.6,98,0.00,,OVC,0.00,VWS V14.01,2013-02-28 23:20:00,
2013-02-28 18:25:00,34.3,33.8,29.56,NW,315,0.0,0.0,98,0.00,,OVC,0.00,VWS V14.01,2013-02-28 23:25:00,
2013-02-28 18:30:00,34.3,33.8,29.56,NNE,22,0.9,4.3,98,0.00,,OVC,0.00,VWS V14.01,2013-02-28 23:30:00,
2013-02-28 18:35:00,34.3,33.8,29.56,NNW,338,1.6,3.4,98,0.00,,OVC,0.00,VWS V14.01,2013-02-28 23:35:00,
2013-02-28 18:40:00,34.3,33.8,29.56,NW,315,2.2,3.6,98,0.00,,OVC,0.00,VWS V14.01,2013-02-28 23:40:00,
2013-02-28 18:45:00,34.3,33.8,29.56,NNW,338,4.5,4.5,98,0.00,,OVC,0.00,VWS V14.01,2013-02-28 23:45:00,
2013-02-28 18:50:00,34.2,33.7,29.56,NNW,338,2.5,3.6,98,0.00,,OVC,0.00,VWS V14.01,2013-02-28 23:50:00,
2013-02-28 18:55:00,34.0,33.5,29.56,NNW,338,2.0,3.4,98,0.00,,OVC,0.00,VWS V14.01,2013-02-28 23:55:00,
2013-02-28 19:00:00,34.0,33.5,29.56,WNW,292,3.6,7.6,98,0.00,,OVC,0.00,VWS V14.01,2013-03-01 00:00:00,
2013-02-28 19:05:00,33.8,33.3,29.56,WNW,292,3.1,4.9,98,0.00,,OVC,0.00,VWS V14.01,2013-03-01 00:05:00,
2013-02-28 19:10:00,33.6,33.1,29.56,NNW,338,1.6,3.6,98,0.00,,OVC,0.00,VWS V14.01,2013-03-01 00:10:00,
2013-02-28 19:15:00,33.6,33.1,29.56,NNW,338,6.5,6.5,98,0.00,,OVC,0.00,VWS V14.01,2013-03-01 00:15:00,
2013-02-28 19:20:00,33.3,32.8,29.56,North,0,3.1,3.8,98,0.00,,OVC,0.00,VWS V14.01,2013-03-01 00:20:00,
2013-02-28 19:25:00,33.3,32.8,29.56,NW,315,5.4,5.4,98,0.00,,OVC,0.00,VWS V14.01,2013-03-01 00:25:00,
2013-02-28 19:30:00,33.1,32.6,29.56,NW,315,2.5,4.3,98,0.00,,OVC,0.00,VWS V14.01,2013-03-01 00:30:00,
2013-02-28 19:35:00,33.1,32.6,29.59,NNW,338,0.0,5.4,98,0.00,,OVC,0.00,VWS V14.01,2013-03-01 00:35:00,
2013-02-28 19:40:00,33.1,32.6,29.59,NNW,338,3.6,3.8,98,0.00,,OVC,0.00,VWS V14.01,2013-03-01 00:40:00,
2013-02-28 19:45:00,32.9,32.4,29.59,NNW,338,4.3,5.6,98,0.00,,OVC,0.00,VWS V14.01,2013-03-01 00:45:00,
2013-02-28 19:50:00,32.9,32.4,29.56,NW,315,3.1,3.1,98,0.00,,OVC,0.00,VWS V14.01,2013-03-01 00:50:00,
2013-02-28 19:55:00,32.7,32.2,29.56,NNW,338,3.1,3.6,98,0.00,,OVC,0.00,VWS V14.01,2013-03-01 00:55:00,
2013-02-28 20:00:00,32.7,32.2,29.56,NNW,338,2.9,5.6,98,0.00,,OVC,0.00,VWS V14.01,2013-03-01 01:00:00,
2013-02-28 20:05:00,32.7,32.2,29.56,NNW,338,4.7,6.0,98,0.00,,OVC,0.00,VWS V14.01,2013-03-01 01:05:00,
2013-02-28 20:10:00,32.7,32.2,29.56,NNW,338,4.9,6.3,98,0.00,,OVC,0.00,VWS V14.01,2013-03-01 01:10:00,
2013-02-28 20:15:00,32.5,32.0,29.56,NW,315,5.4,5.6,98,0.00,,OVC,0.00,VWS V14.01,2013-03-01 01:15:00,
2013-02-28 20:21:00,32.5,32.0,29.56,NNW,338,5.4,5.4,98,0.00,,OVC,0.00,VWS V14.01,2013-03-01 01:21:00,
2013-02-28 20:26:00,32.5,32.0,29.56,NNE,22,2.2,4.3,98,0.00,,OVC,0.00,VWS V14.01,2013-03-01 01:26:00,
2013-02-28 20:30:00,32.5,32.0,29.56,NW,315,2.9,4.3,98,0.00,,OVC,0.00,VWS V14.01,2013-03-01 01:30:00,
2013-02-28 20:31:00,32.5,32.0,29.56,NNW,338,5.6,6.3,98,0.00,,OVC,0.00,VWS V14.01,2013-03-01 01:31:00,
2013-02-28 20:36:00,32.4,31.9,29.56,NNW,338,7.4,7.4,98,0.00,,OVC,0.00,VWS V14.01,2013-03-01 01:36:00,
2013-02-28 20:41:00,32.2,31.7,29.56,NNW,338,2.9,7.2,98,0.00,,OVC,0.00,VWS V14.01,2013-03-01 01:41:00,
2013-02-28 20:46:00,32.2,31.7,29.56,North,0,0.0,6.3,98,0.00,,OVC,0.00,VWS V14.01,2013-03-01 01:46:00,
2013-02-28 20:51:00,32.2,31.7,29.56,NNW,338,3.8,6.0,98,0.00,,OVC,0.00,VWS V14.01,2013-03-01 01:51:00,
2013-02-28 20:56:00,32.2,31.7,29.56,NW,315,4.0,4.9,98,0.00,,OVC,0.00,VWS V14.01,2013-03-01 01:56:00,
2013-02-28 21:00:00,32.2,31.7,29.56,NW,315,4.7,4.9,98,0.00,,OVC,0.00,VWS V14.01,2013-03-01 02:00:00,
2013-02-28 21:01:00,32.0,31.5,29.56,NW,315,4.9,4.9,98,0.00,,OVC,0.00,VWS V14.01,2013-03-01 02:01:00,
2013-02-28 21:06:00,31.8,31.3,29.56,NNW,338,5.4,6.5,98,0.00,,OVC,0.00,VWS V14.01,2013-03-01 02:06:00,
2013-02-28 21:11:00,31.8,31.3,29.56,NNW,338,4.0,6.5,98,0.00,,OVC,0.00,VWS V14.01,2013-03-01 02:11:00,
2013-02-28 21:16:00,31.8,31.3,29.56,NNW,338,2.5,4.3,98,0.00,,OVC,0.00,VWS V14.01,2013-03-01 02:16:00,
2013-02-28 21:21:00,31.6,31.1,29.56,NW,315,3.6,3.8,98,0.00,,OVC,0.00,VWS V14.01,2013-03-01 02:21:00,
2013-02-28 21:26:00,31.6,31.1,29.56,NNW,338,4.9,6.0,98,0.00,,OVC,0.00,VWS V14.01,2013-03-01 02:26:00,
2013-02-28 21:30:00,31.6,31.1,29.56,NNW,338,3.6,6.0,98,0.00,,OVC,0.00,VWS V14.01,2013-03-01 02:30:00,
2013-02-28 21:31:00,31.6,31.1,29.56,NNW,338,3.6,6.5,98,0.00,,OVC,0.00,VWS V14.01,2013-03-01 02:31:00,
2013-02-28 21:36:00,31.5,31.0,29.56,NNW,338,5.6,6.0,98,0.00,,OVC,0.00,VWS V14.01,2013-03-01 02:36:00,
2013-02-28 21:41:00,31.5,31.0,29.56,NNW,338,5.8,5.8,98,0.00,,OVC,0.00,VWS V14.01,2013-03-01 02:41:00,
2013-02-28 21:46:00,31.5,31.0,29.56,NNW,338,4.3,5.8,98,0.00,,OVC,0.00,VWS V14.01,2013-03-01 02:46:00,
2013-02-28 21:51:00,31.3,30.8,29.53,NNW,338,4.9,5.4,98,0.00,,OVC,0.00,VWS V14.01,2013-03-01 02:51:00,
2013-02-28 21:56:00,31.3,30.8,29.53,NNW,338,4.9,5.8,98,0.00,,OVC,0.00,VWS V14.01,2013-03-01 02:56:00,
2013-02-28 22:00:00,31.3,30.8,29.53,NW,315,4.0,5.8,98,0.00,,OVC,0.00,VWS V14.01,2013-03-01 03:00:00,
2013-02-28 22:01:00,31.3,30.8,29.53,NNW,338,5.6,5.6,98,0.00,,OVC,0.00,VWS V14.01,2013-03-01 03:01:00,
2013-02-28 22:06:00,31.3,30.8,29.53,NNW,338,3.8,6.0,98,0.00,,OVC,0.00,VWS V14.01,2013-03-01 03:06:00,
2013-02-28 22:11:00,31.3,30.8,29.53,North,0,2.5,5.8,98,0.00,,OVC,0.00,VWS V14.01,2013-03-01 03:11:00,
2013-02-28 22:16:00,31.1,30.6,29.53,NNW,338,4.5,4.5,98,0.00,,OVC,0.00,VWS V14.01,2013-03-01 03:16:00,
2013-02-28 22:21:00,31.1,30.6,29.53,NNW,338,4.3,6.3,98,0.00,,OVC,0.00,VWS V14.01,2013-03-01 03:21:00,
2013-02-28 22:26:00,31.1,30.6,29.53,NNW,338,4.9,6.0,98,0.00,,OVC,0.00,VWS V14.01,2013-03-01 03:26:00,
2013-02-28 22:30:00,31.1,30.6,29.53,NNW,338,4.9,6.0,98,0.00,,OVC,0.00,VWS V14.01,2013-03-01 03:30:00,
2013-02-28 22:31:00,31.1,30.6,29.53,NNW,338,5.8,5.8,98,0.00,,OVC,0.00,VWS V14.01,2013-03-01 03:31:00,
2013-02-28 22:36:00,31.1,30.6,29.53,NNW,338,3.8,6.3,98,0.00,,OVC,0.00,VWS V14.01,2013-03-01 03:36:00,
2013-02-28 22:41:00,31.1,30.6,29.53,NNW,338,4.3,5.8,98,0.00,,OVC,0.00,VWS V14.01,2013-03-01 03:41:00,
2013-02-28 22:46:00,31.1,30.6,29.53,NNW,338,6.0,6.0,98,0.00,,OVC,0.00,VWS V14.01,2013-03-01 03:46:00,
2013-02-28 22:51:00,31.1,30.6,29.53,NW,315,3.6,5.6,98,0.00,,OVC,0.00,VWS V14.01,2013-03-01 03:51:00,
2013-02-28 22:56:00,31.1,30.6,29.53,NNW,338,6.0,6.0,98,0.00,,OVC,0.00,VWS V14.01,2013-03-01 03:56:00,
2013-02-28 23:00:00,31.1,30.6,29.53,NNW,338,6.0,6.0,98,0.00,,OVC,0.00,VWS V14.01,2013-03-01 04:00:00,
2013-02-28 23:01:00,31.1,30.6,29.53,NNW,338,3.4,5.8,98,0.00,,OVC,0.00,VWS V14.01,2013-03-01 04:01:00,
2013-02-28 23:06:00,31.1,30.6,29.53,NNW,338,6.0,6.0,98,0.00,,OVC,0.00,VWS V14.01,2013-03-01 04:06:00,
2013-02-28 23:11:00,31.1,30.6,29.53,NNW,338,3.4,5.6,98,0.00,,OVC,0.00,VWS V14.01,2013-03-01 04:11:00,
2013-02-28 23:16:00,31.1,30.6,29.53,NNW,338,4.0,7.6,98,0.00,,OVC,0.00,VWS V14.01,2013-03-01 04:16:00,
2013-02-28 23:21:00,31.1,30.6,29.50,NNW,338,6.5,6.5,98,0.00,,OVC,0.00,VWS V14.01,2013-03-01 04:21:00,
2013-02-28 23:26:00,30.9,30.4,29.50,NNW,338,4.3,6.7,98,0.00,,OVC,0.00,VWS V14.01,2013-03-01 04:26:00,
2013-02-28 23:30:00,30.9,30.4,29.50,NNW,338,4.3,6.7,98,0.00,,OVC,0.00,VWS V14.01,2013-03-01 04:30:00,
2013-02-28 23:31:00,30.9,30.4,29.50,NNW,338,5.8,5.8,98,0.00,,OVC,0.00,VWS V14.01,2013-03-01 04:31:00,
2013-02-28 23:36:00,31.1,30.6,29.50,NW,315,6.5,6.5,98,0.00,,OVC,0.00,VWS V14.01,2013-03-01 04:36:00,
2013-02-28 23:41:00,30.9,30.4,29.50,NNW,338,3.4,6.0,98,0.00,,OVC,0.00,VWS V14.01,2013-03-01 04:41:00,
2013-02-28 23:46:00,30.9,30.4,29.50,NNW,338,2.5,4.9,98,0.00,,OVC,0.00,VWS V14.01,2013-03-01 04:46:00,
2013-02-28 23:51:00,30.9,30.4,29.53,NNW,338,2.5,4.9,98,0.00,,OVC,0.00,VWS V14.01,2013-03-01 04:51:00,
2013-02-28 23:56:00,30.9,30.4,29.53,NNW,338,6.0,6.0,98,0.00,,OVC,0.00,VWS V14.01,2013-03-01 04:56:00,